Regional Weather Roundup
Issued by NWS

Home | Current Version | Previous Version | Graphics & Text | Print | Product List | Glossary On
Versions: 1 2 3 4 5 6 7 8 9 10 11 12 13 14 15 16 17 18 19 20 21 22 23 24 25 26 27 28 29 30 31 32 33 34 35 36 37 38 39 40 41 42 43 44 45 46 47 48 49 50
000
ASUS45 KSLC 261410
RWRUT

UTAH REGIONAL WEATHER ROUNDUP
NATIONAL WEATHER SERVICE SALT LAKE CITY UT
700 AM MST FRI DEC 26 2014

UTZ001>011-023>025-261500-

NORTHERN UTAH

CITY           SKY/WX    TMP DP  RH WIND       PRES   REMARKS
BRIGHAM CITY   CLOUDY    26  17  69 W7        29.96R WCI  18
HILL AFB       CLOUDY    24  17  73 E3        29.92R
LOGAN          CLOUDY    19  17  92 S3        29.97R
OGDEN          CLOUDY    26  17  68 NE8       29.93R WCI  18
PROVO AIRPORT  MOCLDY    23  19  86 CALM      29.90R
SALT LAKE CITY CLOUDY    24  20  84 N9        29.93R WCI  14
VERNAL         MOCLDY    21   8  57 NE14      29.83R WCI   8
WENDOVER       PTCLDY    27  10  50 NW17G26   30.00R WCI  14
HEBER CITY     PTCLDY    18  10  73 E10       29.85R WCI   6
WEST JORDAN    CLOUDY    25  23  93 NW14      29.92R WCI  13

$$

UTZ012>022-026-027-261500-

SOUTHERN/CENTRAL UTAH

CITY           SKY/WX    TMP DP  RH WIND       PRES   REMARKS
BLANDING       CLEAR     17  14  88 N7        29.79S WCI   7
BRYCE CANYON   MOCLDY    11   6  81 NW10      29.77R WCI  -3
CEDAR CITY     CLOUDY    21  16  81 N14       29.88R WCI   8
DELTA          CLOUDY    23  19  85 N13       29.92R WCI  11
MILFORD        LGT SNOW  23  20  88 N9        29.92R FOG     WCI  13
MOAB/CYNLANDS  LGT SNOW  24  23  96 NW7       29.78R FOG     WCI  16
PRICE          MOCLDY    23   9  55 N7        29.76R WCI  15
ST GEORGE      MOSUNNY   30  18  59 CALM      29.98R

$$

REGIONAL REPORTS     COLORADO/ARIZONA

CITY           SKY/WX    TMP DP  RH WIND       PRES   REMARKS
CRAIG, CO      CLOUDY    17  13  84 W10       29.78R WCI   5
GRAND JUNCTION LGT SNOW  24  24 100 N3        29.77S FOG
RIFLE          CLOUDY    22  20  92 CALM      29.76R
MONTROSE       LGT SNOW  24  22  91 N3        29.77R FOG
CORTEZ         CLEAR      8   6  92 CALM      29.73R FOG
PAGE, AZ       CLOUDY    32  12  43 VRB5      29.82R WCI  27
GRAND CANYON   CLEAR     14  10  84 CALM      29.81R
KINGMAN        CLEAR     27  15  61 SE3       29.96R
FLAGSTAFF      CLEAR     16  10  77 SW6       29.77R WCI   7

$$

REGIONAL REPORTS    NEVADA/IDAHO/WYOMING

CITY           SKY/WX    TMP DP  RH WIND       PRES   REMARKS
LAS VEGAS, NV  PTCLDY    42  10  27 NW17      29.97R
ELY            CLOUDY    17  12  80 NW6       29.96R WCI   9
ELKO           CLOUDY    24  15  68 NW3       30.06R
POCATELLO, ID  PTCLDY     3   1  91 NE7       30.03R WCI  -9
BURLEY         CLOUDY    20  13  74 S6        30.02R WCI  12
EVANSTON, WY   LGT SNOW  14   9  80 N8        29.83R WCI   3
ROCK SPRINGS   CLOUDY    13   9  84 NE13      29.83R WCI  -2

$$


USA.gov is the U.S. government's official web portal to all federal, state and local government web resources and services.